Crow Agency, MT

5:15 PM MDT on May 28, 2017 (GMT -0600)
MLBHM8 | | Change Station

Elev 3116 ft 45.57 °N, 107.44 °W | Updated 18 days ago

Light Thunderstorms and Rain
Light Thunderstorm Rain
71.0 °F
Feels Like 71.0 °F
N
9.0
Wind Variable Wind from SE
Gusts 16.0 mph

Today
High -- | Low -- °F
--% Chance of Precip.
Yesterday
High -- | Low -- °F
Precip. -- in
Pressure 30.17 in
Visibility 10.0 miles
Clouds Scattered Clouds 6000 ft
Mostly Cloudy 10000 ft
Mostly Cloudy 20000 ft
Dew Point 39.0 °F
Humidity 31%
Rainfall in
Snow Depth Not available.
5:26 AM 8:48 PM
Waxing Crescent, 14% visible
METAR KBIL 282253Z VRB03KT 10SM -TSRA SCT060CB BKN100 BKN200 16/07 A3020 RMK AO2 PK WND 02027/2209 WSHFT 2235 LTG DSNT SE RAB13 TSB09 SLP214 OCNL LTGICCG SE-SW TS SE-SW MOV SE P0003 T01610072 $
Pressure 30.17 in
Visibility 10.0 miles
Clouds Scattered Clouds 6000 ft
Mostly Cloudy 10000 ft
Mostly Cloudy 20000 ft
Dew Point 39.0 °F
Humidity 31%
Rainfall in
Snow Depth Not available.
5:26 AM 8:48 PM
Waxing Crescent, 14% visible
METAR KBIL 282253Z VRB03KT 10SM -TSRA SCT060CB BKN100 BKN200 16/07 A3020 RMK AO2 PK WND 02027/2209 WSHFT 2235 LTG DSNT SE RAB13 TSB09 SLP214 OCNL LTGICCG SE-SW TS SE-SW MOV SE P0003 T01610072 $

Get Severe Weather Alerts

Thanks for signing up!

Be on the lookout for a verification email in your inbox.

You'll start receiving the daily forecast at 6 AM.

×

10-Day Weather Forecast

Almanac

Astronomy

May. 28, 2017 Rise Set
Actual Time
Civil Twilight
Nautical Twilight
Astronomical Twilight
Moon
Length of Visible Light
Length of Day
Tomorrow will be .
, % of the Moon is Illuminated

Today's Extremes

State Highs State Lows

Community

WunderPhotos

Category 6

Welcome to Category 6. This is the collective home for Weather Underground's featured writeups by Dr. Jeff Masters (right), Bob Henson (left), Chris Burt, and other regular contributors.

Nearby

Air Quality

  Air Quality AQ Index Pollutant
Not available.

Snow Depth

Station Depth Elevation

Earthquake Activity

City Distance Mag. Time & Date
Minimum magnitude displayed is 2.5.

Coastal Water Temperatures

Place Temperature

Stations

Nearby Weather Stations

Station Location Temp. Windchill Dew Point Humidity Wind Precip. Elev Updated Type
                   

Watches & Warnings

There are currently no watches in effect.